Time,TemperatureF,DewpointF,PressureIn,WindDirection,WindDirectionDegrees,WindSpeedMPH,WindSpeedGustMPH,Humidity,HourlyPrecipIn,Conditions,Clouds,dailyrainin,SolarRadiationWatts/m^2,SoftwareType,DateUTC
2013-04-19 00:00:00,41.4,37.0,29.40,South,186,3.0,11.0,84,0.00,,,1.19,0,weatherlink.com 1.10,2013-04-19 05:00:00,
2013-04-19 00:15:00,41.0,36.0,29.41,SSE,157,5.0,16.0,83,0.00,,,0.00,0,weatherlink.com 1.10,2013-04-19 05:15:00,
2013-04-19 00:30:00,40.6,36.0,29.41,South,177,2.0,14.0,83,0.00,,,0.00,0,weatherlink.com 1.10,2013-04-19 05:30:00,
2013-04-19 00:45:00,40.2,35.0,29.41,SE,128,1.0,16.0,83,0.00,,,0.00,0,weatherlink.com 1.10,2013-04-19 05:45:00,
2013-04-19 01:00:00,39.8,35.0,29.41,SSE,167,4.0,17.0,82,0.00,,,0.00,0,weatherlink.com 1.10,2013-04-19 06:00:00,
2013-04-19 01:15:00,39.8,34.0,29.41,NNW,338,5.0,19.0,81,0.01,,,0.01,0,weatherlink.com 1.10,2013-04-19 06:15:00,
2013-04-19 01:30:00,39.4,35.0,29.41,South,175,2.0,13.0,83,0.01,,,0.01,0,weatherlink.com 1.10,2013-04-19 06:30:00,
2013-04-19 01:45:00,39.1,35.0,29.42,NNW,344,3.0,11.0,84,0.01,,,0.01,0,weatherlink.com 1.10,2013-04-19 06:45:00,
2013-04-19 02:00:00,38.4,33.0,29.42,SE,134,4.0,12.0,81,0.01,,,0.01,0,weatherlink.com 1.10,2013-04-19 07:00:00,
2013-04-19 02:15:00,38.3,33.0,29.41,SE,142,2.0,15.0,81,0.00,,,0.01,0,weatherlink.com 1.10,2013-04-19 07:15:00,
2013-04-19 02:30:00,38.1,32.0,29.40,South,173,7.0,17.0,80,0.00,,,0.01,0,weatherlink.com 1.10,2013-04-19 07:30:00,
2013-04-19 02:45:00,38.0,32.0,29.40,SE,131,3.0,21.0,78,0.00,,,0.01,0,weatherlink.com 1.10,2013-04-19 07:45:00,
2013-04-19 03:00:00,38.0,32.0,29.40,South,182,3.0,11.0,79,0.00,,,0.01,0,weatherlink.com 1.10,2013-04-19 08:00:00,
2013-04-19 03:15:00,38.0,32.0,29.40,SSE,163,3.0,14.0,79,0.00,,,0.01,0,weatherlink.com 1.10,2013-04-19 08:15:00,
2013-04-19 03:30:00,38.0,32.0,29.40,SE,131,7.0,13.0,78,0.00,,,0.01,0,weatherlink.com 1.10,2013-04-19 08:30:00,
2013-04-19 03:45:00,37.9,32.0,29.39,SSE,163,3.0,17.0,78,0.00,,,0.01,0,weatherlink.com 1.10,2013-04-19 08:45:00,
2013-04-19 04:00:00,37.8,32.0,29.39,SE,128,2.0,8.0,78,0.00,,,0.01,0,weatherlink.com 1.10,2013-04-19 09:00:00,
2013-04-19 04:15:00,37.7,31.0,29.39,SSW,205,1.0,11.0,78,0.00,,,0.01,0,weatherlink.com 1.10,2013-04-19 09:15:00,
2013-04-19 04:30:00,37.6,31.0,29.39,WNW,295,5.0,9.0,77,0.00,,,0.01,0,weatherlink.com 1.10,2013-04-19 09:30:00,
2013-04-19 04:45:00,37.5,31.0,29.39,NNW,335,1.0,16.0,78,0.00,,,0.01,0,weatherlink.com 1.10,2013-04-19 09:45:00,
2013-04-19 05:00:00,37.4,31.0,29.39,NE,34,2.0,9.0,79,0.00,,,0.01,0,weatherlink.com 1.10,2013-04-19 10:00:00,
2013-04-19 05:15:00,37.4,31.0,29.39,SSW,192,4.0,9.0,78,0.00,,,0.01,0,weatherlink.com 1.10,2013-04-19 10:15:00,
2013-04-19 05:30:00,37.1,31.0,29.38,SW,217,5.0,10.0,78,0.00,,,0.01,0,weatherlink.com 1.10,2013-04-19 10:30:00,
2013-04-19 05:45:00,37.2,31.0,29.38,South,179,3.0,10.0,78,0.00,,,0.01,0,weatherlink.com 1.10,2013-04-19 10:45:00,
2013-04-19 06:00:00,37.1,31.0,29.38,SSW,199,7.0,12.0,77,0.00,,,0.01,0,weatherlink.com 1.10,2013-04-19 11:00:00,
2013-04-19 06:15:00,37.0,31.0,29.39,SE,133,4.0,13.0,78,0.00,,,0.01,0,weatherlink.com 1.10,2013-04-19 11:15:00,
2013-04-19 06:30:00,37.0,31.0,29.39,SW,223,0.0,7.0,78,0.00,,,0.01,5,weatherlink.com 1.10,2013-04-19 11:30:00,
2013-04-19 06:45:00,36.9,31.0,29.39,South,184,2.0,15.0,79,0.00,,,0.01,26,weatherlink.com 1.10,2013-04-19 11:45:00,
2013-04-19 07:00:00,36.9,31.0,29.39,SSE,162,2.0,11.0,80,0.00,,,0.01,26,weatherlink.com 1.10,2013-04-19 12:00:00,
2013-04-19 07:15:00,37.0,31.0,29.39,South,189,5.0,9.0,80,0.00,,,0.01,63,weatherlink.com 1.10,2013-04-19 12:15:00,
2013-04-19 07:31:00,36.8,31.0,29.39,SSE,153,3.0,11.0,80,0.00,,,0.01,76,weatherlink.com 1.10,2013-04-19 12:31:00,
2013-04-19 07:46:00,37.3,31.0,29.39,SE,140,3.0,15.0,78,0.00,,,0.01,93,weatherlink.com 1.10,2013-04-19 12:46:00,
2013-04-19 08:01:00,37.3,31.0,29.39,SE,136,1.0,10.0,77,0.00,,,0.01,95,weatherlink.com 1.10,2013-04-19 13:01:00,
2013-04-19 08:16:00,37.4,30.0,29.39,SE,132,3.0,19.0,75,0.00,,,0.01,72,weatherlink.com 1.10,2013-04-19 13:16:00,
2013-04-19 08:31:00,37.8,30.0,29.39,SSE,157,2.0,13.0,73,0.00,,,0.01,160,weatherlink.com 1.10,2013-04-19 13:31:00,
2013-04-19 08:46:00,38.7,31.0,29.39,South,178,2.0,13.0,75,0.00,,,0.01,714,weatherlink.com 1.10,2013-04-19 13:46:00,
2013-04-19 09:01:00,39.1,31.0,29.39,SSE,157,3.0,16.0,73,0.00,,,0.01,260,weatherlink.com 1.10,2013-04-19 14:01:00,
2013-04-19 09:16:00,38.6,31.0,29.39,SE,136,5.0,16.0,75,0.00,,,0.01,114,weatherlink.com 1.10,2013-04-19 14:16:00,
2013-04-19 09:31:00,37.1,31.0,29.41,SSE,156,6.0,17.0,80,0.00,,,0.01,151,weatherlink.com 1.10,2013-04-19 14:31:00,
2013-04-19 09:46:00,38.6,33.0,29.41,SSW,213,3.0,11.0,79,0.00,,,0.01,274,weatherlink.com 1.10,2013-04-19 14:46:00,
2013-04-19 10:01:00,38.4,31.0,29.41,SSE,162,3.0,12.0,74,0.00,,,0.01,160,weatherlink.com 1.10,2013-04-19 15:01:00,
2013-04-19 10:16:00,38.7,31.0,29.42,South,172,4.0,11.0,74,0.00,,,0.01,387,weatherlink.com 1.10,2013-04-19 15:16:00,
2013-04-19 10:31:00,38.6,31.0,29.42,SW,229,2.0,11.0,74,0.00,,,0.01,267,weatherlink.com 1.10,2013-04-19 15:31:00,
2013-04-19 10:46:00,39.6,31.0,29.43,SSW,200,2.0,13.0,72,0.00,,,0.01,183,weatherlink.com 1.10,2013-04-19 15:46:00,
2013-04-19 11:01:00,39.9,30.0,29.43,ESE,117,3.0,9.0,69,0.00,,,0.01,229,weatherlink.com 1.10,2013-04-19 16:01:00,
2013-04-19 11:16:00,39.1,30.0,29.44,South,188,6.0,12.0,71,0.00,,,0.01,151,weatherlink.com 1.10,2013-04-19 16:16:00,
2013-04-19 11:31:00,39.7,32.0,29.44,South,169,5.0,9.0,73,0.00,,,0.01,485,weatherlink.com 1.10,2013-04-19 16:31:00,
2013-04-19 11:46:00,41.3,32.0,29.44,SSW,195,3.0,14.0,69,0.00,,,0.01,329,weatherlink.com 1.10,2013-04-19 16:46:00,
2013-04-19 12:01:00,40.5,32.0,29.45,SSE,157,3.0,10.0,73,0.00,,,0.01,422,weatherlink.com 1.10,2013-04-19 17:01:00,
2013-04-19 12:16:00,40.7,34.0,29.45,NW,306,3.0,11.0,78,0.00,,,0.01,689,weatherlink.com 1.10,2013-04-19 17:16:00,
2013-04-19 12:31:00,41.1,34.0,29.46,WNW,298,2.0,11.0,75,0.00,,,0.01,360,weatherlink.com 1.10,2013-04-19 17:31:00,
2013-04-19 12:46:00,36.8,32.0,29.48,WNW,296,6.0,16.0,81,0.00,,,0.01,341,weatherlink.com 1.10,2013-04-19 17:46:00,
2013-04-19 13:01:00,39.1,33.0,29.47,SW,235,1.0,14.0,79,0.00,,,0.01,338,weatherlink.com 1.10,2013-04-19 18:01:00,
2013-04-19 13:16:00,40.0,32.0,29.48,WNW,292,2.0,8.0,74,0.00,,,0.01,299,weatherlink.com 1.10,2013-04-19 18:16:00,
2013-04-19 13:31:00,40.3,33.0,29.50,West,273,5.0,14.0,74,0.00,,,0.01,371,weatherlink.com 1.10,2013-04-19 18:31:00,
2013-04-19 13:46:00,39.2,33.0,29.50,North,360,4.0,11.0,78,0.00,,,0.01,359,weatherlink.com 1.10,2013-04-19 18:46:00,
2013-04-19 14:01:00,41.6,32.0,29.50,South,184,3.0,8.0,68,0.00,,,0.01,127,weatherlink.com 1.10,2013-04-19 19:01:00,
2013-04-19 14:16:00,38.9,32.0,29.52,NW,319,2.0,7.0,76,0.00,,,0.01,102,weatherlink.com 1.10,2013-04-19 19:16:00,
2013-04-19 14:31:00,40.6,33.0,29.52,SE,137,2.0,8.0,74,0.00,,,0.01,258,weatherlink.com 1.10,2013-04-19 19:31:00,
2013-04-19 14:46:00,40.2,31.0,29.53,WNW,286,6.0,8.0,70,0.01,,,0.02,97,weatherlink.com 1.10,2013-04-19 19:46:00,
2013-04-19 15:01:00,40.8,29.0,29.54,NW,319,5.0,9.0,64,0.01,,,0.02,232,weatherlink.com 1.10,2013-04-19 20:01:00,
2013-04-19 15:16:00,40.3,30.0,29.54,South,176,1.0,7.0,68,0.01,,,0.02,287,weatherlink.com 1.10,2013-04-19 20:16:00,
2013-04-19 15:31:00,40.3,30.0,29.55,SSE,148,5.0,8.0,66,0.01,,,0.02,72,weatherlink.com 1.10,2013-04-19 20:31:00,
2013-04-19 15:46:00,40.2,29.0,29.57,WNW,286,4.0,9.0,65,0.00,,,0.02,44,weatherlink.com 1.10,2013-04-19 20:46:00,
2013-04-19 16:01:00,39.2,31.0,29.57,South,171,2.0,9.0,71,0.00,,,0.02,181,weatherlink.com 1.10,2013-04-19 21:01:00,
2013-04-19 16:16:00,39.3,29.0,29.58,West,279,4.0,10.0,66,0.00,,,0.02,197,weatherlink.com 1.10,2013-04-19 21:16:00,
2013-04-19 16:32:00,39.3,29.0,29.60,WNW,293,2.0,7.0,68,0.00,,,0.02,40,weatherlink.com 1.10,2013-04-19 21:32:00,
2013-04-19 16:47:00,38.8,30.0,29.61,West,266,2.0,9.0,70,0.00,,,0.02,120,weatherlink.com 1.10,2013-04-19 21:47:00,
2013-04-19 17:02:00,39.4,30.0,29.62,NNE,19,2.0,8.0,68,0.00,,,0.02,56,weatherlink.com 1.10,2013-04-19 22:02:00,
2013-04-19 17:17:00,36.3,31.0,29.63,NW,317,1.0,10.0,81,0.00,,,0.02,83,weatherlink.com 1.10,2013-04-19 22:17:00,
2013-04-19 17:32:00,37.5,31.0,29.64,SSW,202,3.0,11.0,76,0.00,,,0.02,139,weatherlink.com 1.10,2013-04-19 22:32:00,
2013-04-19 17:47:00,38.2,30.0,29.64,NNW,327,3.0,8.0,73,0.00,,,0.02,123,weatherlink.com 1.10,2013-04-19 22:47:00,
2013-04-19 18:02:00,37.9,30.0,29.66,NW,313,6.0,12.0,73,0.00,,,0.02,40,weatherlink.com 1.10,2013-04-19 23:02:00,
2013-04-19 18:17:00,34.3,31.0,29.67,NW,305,6.0,12.0,86,0.01,,,0.03,51,weatherlink.com 1.10,2013-04-19 23:17:00,
2013-04-19 18:32:00,35.5,31.0,29.68,WNW,290,5.0,8.0,84,0.01,,,0.03,69,weatherlink.com 1.10,2013-04-19 23:32:00,
2013-04-19 18:47:00,34.6,31.0,29.68,North,5,5.0,11.0,86,0.01,,,0.03,51,weatherlink.com 1.10,2013-04-19 23:47:00,
2013-04-19 19:02:00,34.9,31.0,29.70,WNW,301,3.0,6.0,84,0.01,,,0.03,32,weatherlink.com 1.10,2013-04-20 00:02:00,
2013-04-19 19:17:00,35.2,31.0,29.71,NW,305,3.0,6.0,84,0.00,,,0.03,12,weatherlink.com 1.10,2013-04-20 00:17:00,
2013-04-19 19:32:00,35.2,30.0,29.72,NW,319,1.0,5.0,81,0.00,,,0.03,5,weatherlink.com 1.10,2013-04-20 00:32:00,
2013-04-19 19:48:00,35.6,29.0,29.74,WNW,296,2.0,5.0,77,0.00,,,0.03,0,weatherlink.com 1.10,2013-04-20 00:48:00,
2013-04-19 20:02:00,35.3,28.0,29.75,WSW,239,1.0,7.0,75,0.00,,,0.03,0,weatherlink.com 1.10,2013-04-20 01:02:00,
2013-04-19 20:17:00,35.4,29.0,29.75,WNW,290,3.0,5.0,77,0.00,,,0.03,0,weatherlink.com 1.10,2013-04-20 01:17:00,
2013-04-19 20:32:00,35.9,28.0,29.76,WNW,293,2.0,8.0,74,0.00,,,0.03,0,weatherlink.com 1.10,2013-04-20 01:32:00,
2013-04-19 20:47:00,35.4,29.0,29.77,WNW,300,1.0,11.0,76,0.00,,,0.03,0,weatherlink.com 1.10,2013-04-20 01:47:00,
2013-04-19 21:02:00,35.1,28.0,29.79,SW,215,3.0,6.0,76,0.00,,,0.03,0,weatherlink.com 1.10,2013-04-20 02:02:00,
2013-04-19 21:17:00,35.0,28.0,29.79,WNW,292,2.0,4.0,77,0.00,,,0.03,0,weatherlink.com 1.10,2013-04-20 02:17:00,
2013-04-19 21:32:00,35.2,28.0,29.80,WNW,293,4.0,4.0,75,0.00,,,0.03,0,weatherlink.com 1.10,2013-04-20 02:32:00,
2013-04-19 21:47:00,35.5,27.0,29.80,NW,315,2.0,7.0,72,0.00,,,0.03,0,weatherlink.com 1.10,2013-04-20 02:47:00,
2013-04-19 22:02:00,35.5,26.0,29.82,NW,315,3.0,13.0,69,0.00,,,0.03,0,weatherlink.com 1.10,2013-04-20 03:02:00,
2013-04-19 22:17:00,35.2,26.0,29.82,NW,305,7.0,13.0,68,0.00,,,0.03,0,weatherlink.com 1.10,2013-04-20 03:17:00,
2013-04-19 22:32:00,34.8,25.0,29.83,NNW,330,6.0,10.0,68,0.00,,,0.03,0,weatherlink.com 1.10,2013-04-20 03:32:00,
2013-04-19 22:47:00,34.7,26.0,29.84,WNW,292,6.0,9.0,70,0.00,,,0.03,0,weatherlink.com 1.10,2013-04-20 03:47:00,
2013-04-19 23:03:00,34.2,25.0,29.84,NW,309,3.0,13.0,69,0.00,,,0.03,0,weatherlink.com 1.10,2013-04-20 04:03:00,
2013-04-19 23:18:00,33.6,24.0,29.85,WNW,300,3.0,8.0,69,0.00,,,0.03,0,weatherlink.com 1.10,2013-04-20 04:18:00,
2013-04-19 23:33:00,33.2,21.0,29.86,North,355,4.0,14.0,61,0.00,,,0.03,0,weatherlink.com 1.10,2013-04-20 04:33:00,
2013-04-19 23:48:00,32.9,21.0,29.87,NNW,328,3.0,9.0,63,0.00,,,0.03,0,weatherlink.com 1.10,2013-04-20 04:48:00,